Location: Mount Hamilton
(37.3433°N, 121.6347°W)
Time: 23:55:33
(UTC-07:00)

Hubble Space Telescope - Visible Passes

Search period start: 23 April 2018 00:00
Search period end: 03 May 2018 00:00
Orbit: 537 x 541 km, 28.5° (Epoch: 23 April)

Date Brightness Start Highest point End Pass type
(mag) Time Alt. Az. Time Alt. Az. Time Alt. Az.
25 Apr 3.1 21:40:05 10° SSW 21:40:39 12° SSW 21:40:39 12° SSW visible
26 Apr 2.6 21:29:28 10° SW 21:31:22 18° S 21:31:22 18° S visible
27 Apr 2.2 21:18:54 10° SW 21:21:57 21° S 21:21:57 21° S visible
28 Apr 2.1 21:08:25 10° SW 21:11:40 22° S 21:12:26 21° SSE visible
29 Apr 2.2 20:57:58 10° SW 21:01:16 23° S 21:02:50 19° SE visible
30 Apr 2.2 20:47:32 10° SW 20:50:52 24° S 20:53:09 15° SE visible
01 May 2.2 20:37:08 10° SW 20:40:28 23° S 20:43:24 12° SE visible
01 May 3.4 22:18:33 10° SW 22:18:45 11° SW 22:18:45 11° SW visible
02 May 2.3 20:26:47 10° WSW 20:30:04 23° S 20:33:21 10° SE visible
02 May 3.3 22:08:32 10° SW 22:08:59 11° SW 22:08:59 11° SW visible
